Preview of NWS' New Version of Forecast
This preview is not operational and should not be used for support decisions.

Regional Weather Roundup (RWR)

Issued by National Weather Service (NWS)

                            
000
ASUS43 KDMX 240506
RWRIA 

WEATHER ROUNDUP FOR IOWA
NATIONAL WEATHER SERVICE DES MOINES IA
1200 AM CDT MON JUN 24 2019

NOTE: "FAIR" INDICATES FEW OR NO CLOUDS BELOW 12,000 FEET WITH NO
SIGNIFICANT WEATHER AND/OR OBSTRUCTIONS TO VISIBILITY.

* - THESE STATIONS ARE NOT NWS STATIONS...THUS NOT UNDER NWS
QUALITY CONTROL.  THEY ALSO DO NOT REPORT WEATHER SUCH 
AS PRECIPITATION OR FOG.  

IAZ001>003-012>014-020>022-031>034-043>046-240600-
   NORTHWEST IOWA
  
CITY           SKY/WX    TMP DP  RH WIND       PRES   REMARKS
CARROLL *      CLOUDY    64  63  94 NW13      29.69R                  
CHEROKEE *     CLOUDY    61  58  90 NW5       29.72S                  
DENISON *      CLOUDY    63  61  94 NW7       29.73S                  
LE MARS *      CLOUDY    61  61 100 W7        29.73S                  
SHELDON *        N/A     59  59 100 NW7       29.70F                  
SIOUX CITY     MOCLDY    61  57  87 NW13      29.73F                  
SPENCER        CLOUDY    61  57  87 NW8       29.69F                  
STORM LAKE *   CLOUDY    59  59 100 N10       29.68F                  
$$
 
IAZ055>058-069>071-079>083-090>094-240600-
   SOUTHWEST IOWA
  
CITY           SKY/WX    TMP DP  RH WIND       PRES   REMARKS
ATLANTIC *     CLOUDY    64  64 100 W9        29.71R                  
AUDUBON *      CLOUDY    64  63  94 CALM      29.71S                  
CLARINDA *     CLOUDY    66  66 100 W7        29.74S                  
COUNCIL BLFS * PTCLDY    61  61 100 NW7       29.70F                  
CRESTON *      CLOUDY    66  64  94 SW10      29.71R                  
HARLAN  *      CLOUDY    63  63 100 NW12      29.72R                  
LAMONI         CLOUDY    65  64  97 S7        29.71R FOG              
RED OAK *      CLOUDY    66  64  94 NW9       29.72S                  
SHENANDOAH *   CLOUDY    66  64  94 NW5       29.72S                  
$$
 
IAZ047>049-059>061-072>074-084-240600-
   CENTRAL IOWA
  
CITY           SKY/WX    TMP DP  RH WIND       PRES   REMARKS
AMES           CLEAR     65  65 100 SW3       29.66F                  
ANKENY *       CLEAR     66  64  94 SW3       29.67F                  
BOONE *        PTCLDY    66  66 100 W6        29.66F                  
CHARITON *     CLEAR     64  64 100 S7        29.68F                  
DES MOINES     MOCLDY    67  63  87 SW5       29.66F                  
GRINNELL*      CLOUDY    67  65  93 CALM      29.69F                  
KNOXVILLE *    CLEAR     66  64  94 S5        29.66F                  
MARSHALLTOWN   MOCLDY    67  66  97 CALM      29.66F                  
NEWTON *       PTCLDY    66  66 100 CALM      29.67F                  
PELLA *          N/A     67  64  89 CALM      29.68F                  
PERRY *        CLOUDY    67  67 100 CALM      29.68S                  
$$
 
IAZ004>006-015-016-023>025-035-036-240600-
   NORTH CENTRAL IOWA
  
CITY           SKY/WX    TMP DP  RH WIND       PRES   REMARKS
ALGONA *       CLOUDY    63  63 100 N7G14     29.66S                  
CLARION *      PTCLDY    64  64 100 SW6       29.65F                  
ESTHERVILLE    CLOUDY    58  56  93 NW15      29.68S                  
FORT DODGE *   MOCLDY    63  63 100 SW3       29.67F                  
MASON CITY     MOCLDY    65  61  87 S5        29.66F                  
FOREST CITY *  LGT RAIN  64  64 100 S8        29.65F                  
IOWA FALLS *   MOCLDY    67  65  93 CALM      29.65F                  
$$

IAZ007>011-017>019-026>030-037>042-050>054-066-240600-
   NORTHEAST IOWA
  
CITY           SKY/WX    TMP DP  RH WIND       PRES   REMARKS
CEDAR RAPIDS   CLOUDY    69  67  93 W7        29.67S                  
CHARLES CITY * CLOUDY    68  66  94 SW6       29.66F                  
CLINTON *      MOCLDY    68  67  96 SW3       29.68F                  
DECORAH *      MOCLDY    68  68 100 S5        29.65S                  
DUBUQUE        CLOUDY    67  65  93 SW5       29.67F                  
MONTICELLO *   FAIR      66  66 100 CALM      29.67S                  
OELWEIN *      CLOUDY    68  68 100 SW7       29.68S                  
WATERLOO       CLOUDY    71  66  84 SW5       29.66R                  
$$
 
IAZ064-065-067-068-078-240600-
   EAST CENTRAL IOWA
  
CITY           SKY/WX    TMP DP  RH WIND       PRES   REMARKS
DAVENPORT      CLOUDY    71  66  84 SW7       29.69S                  
IOWA CITY      CLOUDY    70  66  87 W5        29.68S                  
MT. PLEASANT * CLOUDY    70  70 100 CALM      29.69F                  
MUSCATINE *    MOCLDY    72  68  88 S3        29.67F                  
QUAD CITIES    CLOUDY    71  67  87 CALM      29.67S                  
$$
 
IAZ062-063-075>077-085>089-095>099-240600-
   SOUTHEAST IOWA
  
CITY           SKY/WX    TMP DP  RH WIND       PRES   REMARKS
BURLINGTON     CLOUDY    70  67  90 SW6       29.68F                  
FAIRFIELD *    CLOUDY    70  68  94 SW3       29.69S                  
FORT MADISON * CLOUDY    70  70 100 CALM      29.70S                  
KEOKUK *       CLOUDY    70  70 100 MISG      29.70S                  
OSKALOOSA *    MOCLDY    67  65  93 CALM      29.68F                  
CENTERVILLE *  FAIR      64  64 100 S5        29.71F                  
OTTUMWA        MOCLDY    66  64  93 S3        29.67F                  
WASHINGTON *   CLEAR     70  70 100 SW7       29.67F                  
$$

ABBREVIATIONS USED IN REMARKS
   TC - TEMPERATURES IN CELSIUS
  WCI - WIND CHILL INDEX
   HX - HEAT INDEX
  VSB - VISIBILITY  
$$